Probability
0 0 0 0 0 0 0 0 0 0 0 0 0 0 0 0 0 0 0 0 0 1 2 4 5 4 2 3 3 3 3 3 3 3 3 3 3 3 3 3 2 1 2 2 2 1 1 0 0
0 0 0 0 0 0 0 0 0 0 0 0 0 0 0 0 0 0 0 0 0 1 1 3 4 2 1 2 3 3 3 3 4 4 3 3 3 3 3 3 2 1 1 2 2 2 1 0 0
0 0 0 0 0 0 0 0 0 0 0 0 0 0 0 0 0 0 0 0 0 0 1 2 2 1 0 1 2 3 4 4 5 5 4 3 3 3 3 3 2 1 0 1 1 1 1 0 0
0 0 0 0 0 0 0 0 0 0 0 0 0 0 0 1 1 1 1 1 1 1 1 2 2 1 2 2 2 2 4 5 6 5 4 3 3 3 3 3 3 2 1 0 0 0 0 0 0
0 0 0 0 0 0 0 0 0 0 0 0 0 0 0 1 2 2 2 3 3 1 1 3 3 3 4 4 3 2 3 5 5 4 3 3 2 3 3 3 3 2 1 1 1 0 0 0 0
0 0 0 0 0 0 0 0 0 0 0 0 0 0 0 1 2 4 4 4 4 2 1 3 4 4 4 4 3 3 3 4 4 4 3 1 1 1 2 2 3 2 2 2 2 1 0 0 0
0 0 0 0 0 0 0 0 0 0 0 0 0 0 0 0 1 3 5 5 4 2 2 3 4 3 3 3 3 2 2 3 4 3 2 1 0 0 1 1 1 2 2 2 2 1 0 0 0
0 0 0 0 0 0 0 0 0 0 0 0 0 0 0 0 1 3 4 4 3 2 3 3 2 2 3 3 2 1 1 2 2 2 1 0 0 0 0 0 0 1 1 1 1 0 0 0 0
0 0 0 0 0 0 0 0 0 0 0 0 0 0 0 0 1 2 2 2 1 1 1 1 1 1 2 2 1 0 0 1 1 1 0 0 0 0 0 0 0 0 0 0 0 0 0 0 0
0 0 0 0 0 0 0 0 0 0 0 0 0 0 0 0 0 1 1 1 0 0 0 0 0 0 1 1 0 0 0 0 0 0 0 0 0 0 0 0 0 0 0 0 0 0 0 0 0
0 0 0 0 0 0 0 0 0 0 0 0 0 0 0 0 0 0 0 0 0 0 0 0 0 0 0 0 0 0 0 0 0 0 0 0 0 0 0 0 0 0 0 0 0 0 0 0 0
0 0 0 0 0 0 0 0 0 0 0 0 0 0 0 0 0 0 0 0 0 0 0 0 0 0 0 0 0 0 0 0 0 0 0 0 0 0 0 0 0 0 0 0 1 1 1 0 0
0 0 0 0 0 0 0 0 0 0 0 0 0 0 0 0 0 0 0 0 0 0 0 0 0 0 0 0 0 0 0 0 0 0 0 0 0 0 0 0 0 0 0 0 1 2 1 0 0
0 0 0 0 0 0 0 0 0 0 0 0 0 0 0 0 0 0 0 0 0 0 0 0 0 0 0 0 0 0 0 0 0 1 0 0 0 0 0 0 0 0 0 0 1 1 0 0 0
0 0 0 0 0 0 0 0 0 0 0 0 0 0 0 0 0 0 0 0 0 0 0 0 0 0 0 0 0 0 0 0 0 0 0 0 0 0 0 0 1 0 0 0 0 0 0 0 0
0 0 0 0 0 0 0 0 0 0 0 0 0 0 0 0 0 0 0 0 0 0 0 0 0 0 0 0 0 0 0 0 0 0 0 0 0 0 0 0 0 0 0 0 0 0 0 0 0
0 0 0 0 0 0 0 0 0 0 0 0 0 0 0 0 0 0 0 0 0 0 0 0 0 0 0 0 0 0 0 0 0 0 0 0 0 0 0 0 0 0 0 0 0 0 0 0 0
0 0 0 0 0 0 0 0 0 0 0 0 0 0 0 0 0 0 0 0 0 0 0 0 0 0 0 0 0 0 0 0 0 0 0 0 0 0 0 0 0 0 0 0 0 0 0 0 0
0 0 0 0 0 0 0 0 0 0 0 0 0 0 0 0 0 0 0 0 0 0 0 0 0 0 0 0 0 0 0 0 0 0 0 0 0 0 0 0 0 0 0 0 0 0 0 0 0
0 0 0 0 0 0 0 0 0 0 0 0 0 0 0 0 0 0 0 0 0 0 0 0 0 0 0 0 0 0 0 0 0 0 0 0 0 0 0 0 0 0 0 0 0 0 0 0 0
0 0 0 0 0 0 0 0 0 0 0 0 0 0 0 0 0 0 0 0 0 0 0 0 0 0 0 0 0 0 0 0 0 0 0 0 0 0 0 0 0 0 0 0 0 0 0 0 0
0 0 0 0 0 0 0 0 0 0 0 0 0 0 0 0 0 0 0 0 0 0 0 0 0 0 0 0 0 0 0 0 0 0 0 0 0 0 0 0 0 0 0 0 0 0 0 0 0
0 0 0 0 0 0 0 0 0 0 0 0 0 0 0 0 0 0 0 0 0 0 0 0 0 0 0 0 0 0 0 0 0 0 0 0 0 0 0 0 0 0 0 0 0 0 0 0 0
0 0 0 0 0 0 0 0 0 0 0 0 0 0 0 0 0 0 0 0 0 0 0 0 0 0 0 0 0 0 0 0 0 0 0 0 0 0 0 0 0 0 0 0 0 0 0 0 0
0 0 0 0 0 0 0 0 0 0 0 0 0 0 0 0 0 0 0 0 0 0 0 0 0 0 0 0 0 0 0 0 0 0 0 0 0 0 0 0 0 0 0 0 0 0 0 0 0
0 0 0 0 0 0 0 0 0 0 0 0 0 0 0 0 0 0 0 0 0 0 0 0 0 0 0 0 0 0 0 0 0 0 0 0 0 0 0 0 0 0 0 0 0 0 0 0 0
0 0 0 0 0 0 0 0 0 0 0 0 0 0 0 0 0 0 0 0 0 0 0 0 0 0 0 0 0 0 0 0 0 0 0 0 0 0 0 0 0 0 0 0 0 0 0 0 0
0 0 0 0 0 0 0 0 0 0 0 0 0 0 0 0 0 0 0 0 0 0 0 0 0 0 0 0 0 0 0 0 0 0 0 0 0 0 0 0 0 0 0 0 0 0 0 0 0
0 0 0 0 0 0 0 0 0 0 0 0 0 0 0 0 0 0 0 0 0 0 0 0 0 0 0 0 0 0 0 0 0 0 0 0 0 0 0 0 0 0 0 0 0 0 0 0 0
0 0 0 0 0 0 0 0 0 0 0 0 0 0 0 0 0 0 0 0 0 0 0 0 0 0 0 0 0 0 0 0 0 0 0 0 0 0 0 0 0 0 0 0 0 0 0 0 0
Wind_Speed
3 2 2 3 4 5 7 4 3 3 3 1 1 2 3 2 2 2 4 3 4 8 9 10 8 10 11 11 10 10 9 9 9 9 9 9 9 9 9 9 10 10 10 10 10 10 10 9 9
3 2 2 3 5 6 5 5 6 4 1 1 2 2 2 1 2 2 2 3 5 8 8 9 8 9 10 11 11 10 9 9 9 9 9 9 9 9 9 9 9 9 9 9 10 9 9 9 9
1 2 2 3 6 7 4 3 4 1 1 2 2 1 1 1 1 1 2 4 6 7 7 8 7 9 10 11 11 10 9 9 9 9 9 9 9 9 9 9 9 9 9 9 9 9 8 8 8
2 3 3 5 8 6 4 1 1 3 3 2 2 2 1 2 2 2 2 5 7 7 7 7 6 8 9 9 10 10 9 9 9 9 9 9 9 9 9 9 9 9 9 8 8 8 7 7 8
2 3 5 6 8 5 5 4 3 4 2 2 3 2 1 2 2 2 3 5 6 6 6 7 6 7 8 8 9 9 9 9 8 8 8 8 9 9 8 8 8 8 8 8 8 7 7 7 7
3 3 6 8 8 5 4 4 3 4 3 1 3 3 1 3 2 2 3 4 5 5 5 6 6 6 7 7 7 7 8 8 8 8 8 8 8 8 8 8 8 8 8 7 7 7 7 6 6
3 4 6 7 7 6 3 2 4 3 4 2 2 3 2 2 3 2 3 4 4 4 4 4 5 6 6 6 7 6 7 7 7 7 7 8 8 8 7 7 7 7 7 7 7 6 6 6 5
2 3 6 6 7 6 1 2 1 3 2 1 1 3 1 2 2 3 3 3 3 3 2 3 4 4 5 6 6 6 6 7 8 8 8 9 8 8 7 6 7 7 6 6 6 6 6 5 5
3 5 7 6 6 3 1 2 0 0 0 0 0 2 4 3 3 4 3 2 2 2 1 1 3 3 4 5 5 6 6 7 7 7 9 7 5 6 5 6 6 6 6 6 5 5 5 4 4
4 7 7 4 4 3 1 1 1 2 2 2 2 1 1 2 3 3 2 2 1 1 1 1 1 2 3 3 4 4 4 5 5 5 6 4 4 4 4 7 6 6 5 5 4 4 4 2 2
4 6 4 4 4 3 3 2 2 3 4 5 5 3 1 1 1 2 2 2 2 2 1 1 1 2 3 3 3 2 2 3 4 5 5 4 4 3 3 3 4 4 4 3 3 3 2 2 1
4 4 4 2 1 2 3 3 2 4 5 4 4 3 1 2 2 3 3 2 2 2 1 1 2 2 2 3 3 3 3 3 3 4 5 4 3 3 3 2 3 2 2 2 1 1 1 2 2
6 4 3 2 1 2 3 5 5 6 5 4 3 2 2 3 3 3 3 3 2 2 2 2 1 2 3 3 3 3 3 4 4 4 4 4 3 3 3 2 2 2 2 2 2 2 2 2 1
3 3 3 3 3 2 3 5 5 7 3 2 2 3 3 4 4 3 2 3 3 3 3 2 2 2 2 3 3 3 3 3 4 4 4 5 4 3 3 3 2 2 2 2 2 2 2 1 1
2 3 4 3 2 2 2 6 6 6 3 3 3 3 3 3 3 3 3 4 4 4 3 3 3 3 3 3 3 2 3 3 3 3 4 5 4 4 3 3 3 2 2 2 2 2 1 1 1
3 4 4 1 1 1 4 8 3 2 3 4 4 3 3 3 3 3 3 4 4 4 4 3 2 3 3 3 3 2 2 3 3 3 4 5 5 4 4 3 3 3 2 2 2 2 2 2 2
4 6 6 2 0 1 4 7 4 2 4 5 5 4 4 3 3 3 3 4 4 4 4 3 3 3 3 3 3 2 2 2 2 2 3 4 4 4 4 3 3 3 3 2 2 2 2 2 2
5 6 5 5 1 2 6 9 9 6 5 6 6 5 4 4 4 4 3 3 3 3 3 2 2 2 2 2 2 2 2 2 1 2 2 3 3 4 3 3 3 3 3 3 3 3 2 2 1
4 5 7 6 3 4 8 11 11 8 6 7 6 4 4 4 3 3 3 3 2 1 1 1 1 1 2 2 2 2 2 2 2 2 2 2 2 3 3 3 3 3 3 3 3 3 3 2 1
6 7 7 5 2 4 7 11 10 7 6 6 6 5 4 3 3 4 4 3 2 1 1 1 1 2 2 2 2 1 2 2 1 2 2 2 2 2 3 3 3 4 3 3 4 3 2 2 2
7 8 7 5 4 3 6 8 6 4 4 3 3 3 2 3 3 4 4 3 3 2 1 1 1 1 2 2 2 2 2 2 1 1 1 2 2 2 3 3 3 3 4 4 4 4 4 3 3
7 5 6 5 4 3 3 7 5 4 4 3 2 1 2 3 3 3 4 4 3 3 2 1 1 1 1 2 2 3 2 2 2 1 1 1 2 2 2 3 3 3 3 3 4 4 4 5 4
3 1 3 4 4 5 4 7 6 2 5 4 2 0 2 3 3 3 3 3 3 3 2 1 0 0 0 1 2 2 2 1 1 1 2 1 1 2 2 2 2 3 3 3 3 4 4 4 4
4 2 2 2 3 7 6 8 7 4 4 3 2 0 2 3 3 3 4 3 3 3 3 2 1 1 0 0 1 2 2 2 1 1 1 1 1 1 2 2 2 3 2 3 3 3 4 4 4
4 3 2 3 4 6 2 7 8 3 3 3 3 1 2 2 3 4 4 4 4 4 3 2 2 1 1 0 1 1 2 2 2 2 2 2 1 1 2 2 2 3 3 3 3 3 4 4 4
7 6 5 5 5 4 4 8 5 2 1 1 1 1 2 2 3 3 4 4 4 4 3 2 2 1 1 0 1 1 1 1 2 2 2 2 2 2 2 2 2 3 3 3 3 3 3 3 4
5 6 3 2 2 5 7 6 6 3 2 2 1 1 1 2 2 3 3 4 4 4 4 3 2 2 1 1 1 1 1 1 1 1 2 2 2 1 2 2 2 3 3 3 3 3 3 3 4
3 3 3 5 5 7 7 8 6 5 6 4 2 2 0 1 2 2 3 3 3 3 4 3 3 2 2 2 1 1 1 1 1 1 1 1 1 2 2 2 2 2 2 3 3 3 3 3 3
5 5 5 4 4 6 7 6 2 4 5 5 4 3 1 1 1 2 2 3 3 3 3 3 3 3 2 2 2 1 1 1 1 1 1 1 1 2 2 2 2 2 3 3 3 3 3 3 3
7 8 8 6 6 6 7 7 1 2 2 3 3 2 1 1 1 1 2 3 3 4 4 3 3 3 3 2 2 2 1 1 1 1 1 1 1 1 2 2 2 2 2 2 3 3 3 3 3
Wind_Direction
329 318 253 224 214 225 232 215 222 193 199 210 228 238 238 248 283 19 59 143 151 155 160 161 162 159 157 153 148 146 144 141 138 133 129 125 121 119 116 113 110 108 106 104 101 96 92 90 86
322 280 221 218 230 225 221 215 218 220 170 155 197 234 231 216 6 31 92 140 160 156 161 162 154 158 156 153 150 150 148 147 143 136 132 128 123 121 118 115 111 109 106 104 100 97 94 93 90
266 262 227 213 229 236 224 197 221 202 194 215 194 237 285 4 59 56 69 154 157 153 159 153 152 158 157 155 153 151 151 151 146 139 133 129 125 122 118 115 112 112 109 106 103 99 96 94 91
238 197 211 229 228 234 249 244 238 214 192 220 225 188 156 36 359 26 110 153 150 152 157 151 153 153 152 155 155 153 154 151 147 141 135 131 126 120 116 114 110 108 106 107 105 102 98 95 93
239 217 213 225 234 230 240 268 253 237 218 207 226 232 171 79 33 80 137 153 150 150 156 153 142 144 148 151 154 153 152 151 146 143 138 134 128 124 118 114 112 110 107 106 106 102 98 97 93
202 215 223 229 228 230 236 242 230 241 241 233 232 232 132 79 66 82 128 146 147 150 156 151 136 139 142 146 153 155 155 153 147 141 137 134 129 125 121 117 115 113 108 106 104 104 101 98 92
222 216 233 235 237 236 228 209 226 240 244 253 266 223 140 96 51 78 116 128 130 135 146 154 161 158 145 136 131 131 135 135 133 130 128 123 118 115 114 115 117 115 113 109 107 107 103 99 93
247 228 226 227 232 236 196 181 238 268 276 19 276 245 138 74 73 98 102 101 102 104 131 149 160 163 157 145 126 123 125 124 121 119 115 111 109 109 108 118 116 116 114 111 108 107 103 97 93
213 228 231 225 227 226 177 199 143 310 198 119 30 340 6 73 111 107 104 100 100 93 116 154 163 162 160 154 141 138 130 125 125 123 117 122 132 127 121 107 104 110 112 112 113 111 107 104 101
211 230 236 234 239 247 223 254 276 225 238 252 241 314 25 109 123 136 144 146 151 183 192 173 182 171 164 160 158 163 157 151 148 141 137 140 136 128 123 108 104 106 108 114 114 115 127 149 134
216 238 237 237 246 249 256 271 283 250 265 271 280 294 292 138 168 192 200 199 211 217 202 203 190 182 176 169 165 163 160 155 156 150 148 147 142 138 140 140 132 131 133 133 130 147 158 150 140
215 236 243 249 237 255 264 261 258 255 270 308 302 297 252 211 215 220 222 226 231 232 240 236 207 191 187 178 167 165 164 161 161 159 156 156 154 154 157 159 152 148 147 149 163 163 156 156 158
222 241 242 245 257 269 266 260 269 271 283 300 302 286 255 246 241 237 234 234 232 231 247 242 230 210 198 189 178 170 175 174 167 163 164 166 163 162 165 160 156 157 156 170 175 177 169 169 163
231 242 269 275 260 248 248 272 263 270 290 295 285 274 271 266 264 259 253 253 247 243 247 245 229 226 205 193 187 185 178 180 174 169 171 172 171 166 166 163 162 169 174 178 184 191 191 188 182
205 243 266 261 248 232 245 266 244 266 268 278 284 285 288 286 276 267 263 258 251 248 246 241 229 224 209 199 196 192 183 179 181 175 174 177 176 175 173 171 171 176 174 177 181 187 201 204 197
201 228 247 159 194 208 237 261 270 285 259 279 290 291 291 294 289 283 280 274 268 257 245 236 227 224 212 201 196 190 183 178 184 180 177 181 180 179 178 176 173 171 173 181 187 196 202 209 210
213 237 249 262 175 231 236 265 293 292 277 283 288 292 298 301 308 311 297 283 273 260 247 232 223 220 213 204 190 177 163 168 176 181 181 183 183 181 182 179 171 171 177 183 190 207 218 217 214
228 236 251 258 305 271 253 263 281 288 275 275 281 288 293 300 313 324 318 300 286 269 253 235 220 215 206 191 171 152 147 153 161 171 178 178 179 182 182 179 173 176 180 183 194 201 210 225 228
238 239 264 279 301 275 262 272 281 286 278 273 274 279 288 299 326 340 341 329 314 311 292 249 216 205 186 180 174 169 175 163 169 167 155 168 172 176 183 180 178 187 191 194 199 206 201 209 213
230 248 266 285 305 266 276 277 275 270 268 274 274 280 294 314 340 350 348 350 336 325 312 261 211 189 191 197 185 181 164 157 162 155 157 159 165 170 182 184 189 193 195 195 197 203 207 200 207
231 237 253 271 307 248 285 273 246 239 243 261 272 275 306 329 337 350 353 349 349 336 310 281 237 196 192 180 159 141 134 124 144 163 172 170 176 178 174 185 191 195 202 203 204 208 214 213 208
242 238 239 248 263 264 275 285 261 239 254 260 282 315 351 4 358 359 357 353 354 342 326 297 263 204 185 171 175 174 178 185 186 181 179 166 185 189 185 186 191 194 201 213 214 217 223 220 217
227 198 210 228 241 265 231 253 270 220 250 250 242 344 12 9 7 8 3 354 356 358 353 340 353 98 145 168 182 194 201 197 169 159 161 171 187 198 200 198 198 202 206 212 214 219 225 224 226
161 138 142 181 222 251 231 233 264 220 240 240 217 319 7 10 11 15 17 15 13 13 12 6 25 41 20 167 190 204 203 183 169 177 184 189 192 208 218 211 208 212 217 218 220 221 224 229 230
179 181 218 220 221 243 211 234 257 268 258 239 229 274 32 35 27 22 19 17 15 12 9 3 359 8 0 306 236 230 223 204 203 206 211 208 206 222 229 222 224 222 224 223 221 217 225 229 230
196 205 223 245 248 266 225 240 259 297 290 232 196 150 79 56 44 31 18 9 7 1 355 354 346 336 336 310 282 266 242 229 233 230 226 220 226 234 230 224 235 233 229 221 221 220 223 232 233
185 211 243 245 278 266 246 253 265 225 206 173 163 137 72 43 31 20 11 7 2 355 351 341 329 321 321 307 315 306 269 245 245 246 243 240 240 237 226 223 230 237 230 221 219 224 222 230 234
234 180 181 207 231 251 255 251 244 210 214 206 214 219 256 20 17 11 7 5 2 355 349 347 337 323 319 313 298 295 282 265 256 243 241 250 247 235 224 224 225 233 230 223 220 225 223 224 231
183 193 212 213 237 249 262 256 235 228 208 208 219 226 237 318 360 1 1 10 7 4 1 354 345 333 325 316 302 285 278 270 258 256 258 258 253 239 228 223 221 222 224 223 223 227 226 226 232
219 211 201 216 228 237 261 267 100 226 225 222 218 228 242 298 355 3 1 5 7 4 359 354 348 338 325 316 306 292 289 274 249 277 287 276 261 247 241 234 228 226 224 222 223 227 228 228 229